Flag for U.S.A. Weather past 2 weeks in Farmington, New Mexico, U.S.A.

Now
72 °F

Clear.


Feels Like: 77 °F
Forecast: 56 / 81 °F
Wind: 7 mph from East

Location: Four Corners Regional Airport

Current Time: Sep 15, 2014 at 11:38:47 PM

Latest Report: Sep 15, 2014 at 10:53 PM


Visibility: 10 mi

Pressure: 30.03 "Hg

Humidity: 35%

Dew point: 43 °F

Location of FarmingtonLocation

Historic Weather in Farmington — Graph

°F

Farmington temperature yesterday

Maximum temperature yesterday: 85 °F (at 5:53 PM)
Minimum temperature yesterday: 56 °F (at 2:53 AM)
Average temperature yesterday: 71 °F

Past Weeks' High & Low Weather Summary

 TemperatureHumidityPressure
High92 °F (Sep 2, 4:53 PM)97% (Sep 10, 12:53 AM)30.15 "Hg (Sep 10, 12:53 AM)
Low47 °F (Sep 11, 6:53 AM)9% (Sep 3, 4:53 PM)29.73 "Hg (Sep 3, 4:53 PM)
Average69 °F44%29.97 "Hg
* Reported Aug 31 9:53 PM — Sep 15 9:53 PM, Farmington, Weather by CustomWeather, © 2014

Note: Actual official high and low records may vary slightly from our data, if they occured in-between our weather recording intervals... More about our weather records

Advertising

Farmington weather history for previous 24 hours

 ConditionsComfort  
Time TempWeatherWind HumidityBarometerVisibility
9:53 PM
Sep 15
74 °FPassing clouds.12 mph33%30.03 "Hg10 mi
8:53 PM77 °FClear.17 mph30%30.00 "Hg10 mi
7:53 PM79 °FSunny.5 mph23%29.97 "Hg10 mi
6:53 PM83 °FSunny.9 mph21%29.95 "Hg10 mi
5:53 PM87 °FSunny.10 mph17%29.94 "Hg10 mi
4:53 PM87 °FSunny.6 mph17%29.93 "Hg10 mi
3:53 PM87 °FSunny.8 mph20%29.95 "Hg10 mi
2:53 PM85 °FSunny.3 mph19%29.96 "Hg10 mi
1:53 PM84 °FSunny.5 mph24%30.00 "Hg10 mi
12:53 PM81 °FSunny.5 mph30%30.03 "Hg10 mi
11:53 AM78 °FSunny.No wind36%30.04 "Hg10 mi
10:53 AM75 °FSunny.3 mph43%30.06 "Hg10 mi
9:53 AM70 °FSunny.7 mph47%30.08 "Hg10 mi
8:53 AM66 °FSunny.9 mph50%30.08 "Hg10 mi
7:53 AM62 °FClear.5 mph58%30.09 "Hg10 mi
6:53 AM59 °FClear.6 mph60%30.06 "Hg10 mi
5:53 AM60 °FClear.8 mph53%30.03 "Hg10 mi
4:53 AM62 °FClear.8 mph46%30.02 "Hg10 mi
3:53 AM63 °FClear.7 mph54%30.00 "Hg10 mi
2:53 AM65 °FClear.9 mph51%29.99 "Hg10 mi
1:53 AM65 °FClear.3 mph49%29.98 "Hg10 mi
12:53 AM67 °FPassing clouds.5 mph45%29.98 "Hg10 mi
11:53 PM
Sep 14
73 °FPassing clouds.5 mph33%29.93 "Hg10 mi
Weather by CustomWeather, © 2014

See weather overviewHow to use our weather pages